Weather in Yelembayevo

Russia / Mari El Republic     56°58′13″N   48°35′24″E
temp.,
°C
wind,
m/s
gust,
m/s
humid.,
%
clouds,
%
prec.,
mm/h
press.,
hPa
HPBL,
m
28 february, sun
sun2800:00−19n499756 0.0 1008144
03:00−21n479828 0.0 1009132
06:00−21n479957 0.0 1010121
09:00−19n479552 0.0 1011232
12:00−16n469361 0.0 1011305
15:00−14n589273 0.0 1013435
18:00−17n479790 0.0 1014106
21:00−19nne349972 0.0 101726
1 march, mon
mon100:00−21n33980 0.0 101820
03:00−22n23980 0.0 102020
06:00−23n22980 0.0 102120
09:00−19wsw11950 0.0 102137
12:00−14wsw239085 0.0 1020286
15:00−11sw469392 0.0 1019364
18:00−12sw51096100 0.0 1016252
21:00−12ssw61096100 0.1 1013262
2 march, tue
tue200:00−10ssw71394100 0.4 1008359
03:00−6ssw81395100 1.9 1004528
06:00−3ssw71296100 1.3 999518
09:00−1sw61098100 3.1 997478
12:000w58100100 1.4 996503
15:000wnw4799100 2.1 996446
18:00−2nw41093100 0.8 996369
21:00−5nw4794100 0.8 998126
3 march, wed
wed300:00−6nnw349689 0.0 99872
03:00−6nnw389694 0.0 1000160
06:00−9nnw369686 0.0 1001126
09:00−6nw589593 0.0 1002307
12:00−3nnw6991100 0.1 1003714
15:00−4nnw71090100 0.3 1005882
18:00−7nw41191100 0.1 1006218
21:00−10nw499459 0.1 1009197
4 march, thu
thu400:00−12wnw479732 0.0 1009111
03:00−13w479744 0.0 1009109
06:00−14wsw479995 0.1 1008114
09:00−10sw6119598 0.1 1006282
12:00−5sw91593100 0.1 1002671
15:00−3sw91595100 0.8 999842
18:00−1sw91695100 1.4 996885
21:000wsw101697100 2.9 9941028